Location: Unspecified
(0.0000°N, 0.0000°E)
Time: 15:22:22
(UTC+00:00)

AO-7 - Pass Details

Date: 27 September 2021
Orbit: 1439 x 1459 km, 101.9° (Epoch: 22 October)

Event Time Altitude Azimuth Distance (km) Brightness Sun altitude
Rises 02:21:22 0° 49° (NE) 4,522 ? -52.4°
Reaches altitude 10° 02:25:11 10° 65° (ENE) 3,545 ? -51.4°
Maximum altitude 02:30:37 19° 107° (ESE) 2,886 ? -50.1°
Drops below altitude 10° 02:36:00 10° 149° (SSE) 3,552 ? -48.7°
Sets 02:39:47 0° 165° (SSE) 4,533 ? -47.8°
